GW6359 Weather Reports


time (UTC)temp
C
wind
direction
speed
KPH
gust
KPH
rain 1hr
cm
rain 24hr
cm
rain mn
cm
humidity
%
barometer
mb
20260502130503 12 315 3.2 8.0 0.00 2.49 0.05 84 1021.0
20260502123503 11 331 1.6 8.0 0.00 2.62 0.05 89 1020.4
20260502123218 10 327 1.6 4.8 0.00 2.67 0.05 90 1020.2
20260502122503 10 309 1.6 3.2 0.00 2.69 0.05 91 1020.1
20260502122003 10 315 1.6 3.2 0.00 2.72 0.05 92 1020.1
20260502121503 10 331 1.6 4.8 0.00 2.74 0.05 93 1020.0
20260502121003 10 333 1.6 4.8 0.00 2.77 0.05 93 1019.9
20260502120503 10 352 0.0 3.2 0.00 2.82 0.05 94 1019.9
20260502115717 10 332 0.0 3.2 0.00 2.92 0.05 93 1019.6
20260502115003 10 299 0.0 3.2 0.00 3.00 0.05 93 1019.5
20260502114717 10 285 0.0 3.2 0.00 3.02 0.05 93 1019.5
20260502114003 10 261 0.0 3.2 0.00 3.07 0.05 93 1019.5
20260502113717 10 261 0.0 3.2 0.00 3.12 0.05 93 1019.4
20260502113003 10 307 0.0 3.2 0.00 3.17 0.05 92 1019.3
20260502112503 10 311 0.0 3.2 0.00 3.20 0.05 93 1019.2
20260502112218 10 271 1.6 3.2 0.00 3.20 0.05 93 1019.4
20260502111503 10 334 0.0 3.2 0.00 3.25 0.05 93 1019.3
20260502111003 10 7 0.0 4.8 0.00 3.28 0.05 93 1019.5
20260502110503 10 343 0.0 4.8 0.00 3.35 0.05 93 1019.2
20260502110003 10 299 0.0 3.2 0.00 3.43 0.05 93 1019.2
20260502105503 10 275 0.0 3.2 0.00 3.51 0.05 93 1019.2
20260502105003 10 314 0.0 3.2 0.00 3.58 0.05 93 1019.1
20260502104503 10 307 0.0 3.2 0.00 3.66 0.05 92 1018.9
20260502104003 10 298 1.6 3.2 0.00 3.73 0.05 92 1019.0
20260502103503 10 304 1.6 3.2 0.00 3.76 0.05 92 1019.0
20260502103003 10 317 0.0 3.2 0.00 3.81 0.05 92 1018.7
20260502102503 10 308 1.6 3.2 0.00 3.86 0.05 92 1018.5
20260502102003 10 317 1.6 3.2 0.00 3.91 0.05 92 1018.5
20260502101503 10 347 0.0 3.2 0.00 3.96 0.05 92 1018.5
20260502101003 10 8 1.6 3.2 0.00 3.99 0.05 91 1018.4
20260502100718 10 2 1.6 3.2 0.00 4.01 0.05 91 1018.3
20260502091503 11 327 1.6 4.8 0.00 4.22 0.05 89 1017.7
20260502091003 11 357 1.6 4.8 0.00 4.27 0.05 89 1017.7
20260502090503 11 336 1.6 4.8 0.00 4.32 0.05 89 1017.8
20260502071503 11 317 1.6 4.8 0.00 4.80 0.05 88 1017.6
20260502071218 11 318 1.6 4.8 0.00 4.80 0.05 88 1017.5
20260502070503 11 335 3.2 4.8 0.00 4.80 0.05 88 1017.3
20260502070003 11 353 3.2 4.8 0.00 4.80 0.05 89 1017.2
20260502065503 11 15 1.6 4.8 0.00 4.80 0.05 89 1017.3
20260502065218 11 3 1.6 4.8 0.00 4.80 0.05 89 1017.3
20260502064717 11 317 1.6 3.2 0.00 4.80 0.05 89 1017.3
20260502064218 11 335 1.6 3.2 0.00 4.80 0.05 89 1017.4
20260502063503 11 332 1.6 4.8 0.00 4.83 0.05 89 1017.6
20260502063003 11 309 1.6 4.8 0.00 4.88 0.05 89 1017.5
20260502062503 11 325 3.2 3.2 0.00 4.93 0.05 88 1017.4
20260502062003 11 337 3.2 3.2 0.00 4.95 0.05 88 1017.6
20260502061503 11 335 1.6 3.2 0.00 4.95 0.05 88 1017.6
20260502061003 12 338 1.6 3.2 0.00 4.95 0.05 88 1017.8
20260502060503 12 347 3.2 4.8 0.00 4.95 0.05 88 1017.5
20260502060003 12 337 3.2 4.8 0.00 4.95 0.05 88 1017.7
20260502055503 12 342 1.6 4.8 0.00 4.95 0.05 89 1017.7
20260502055003 12 339 3.2 4.8 0.00 4.95 0.05 89 1017.5
20260502054503 12 334 3.2 3.2 0.00 4.95 0.05 89 1017.4
20260502054217 12 335 1.6 3.2 0.00 4.95 0.05 89 1017.4
20260502053503 12 329 1.6 1.6 0.00 4.95 0.05 90 1017.6
20260502053003 12 328 1.6 3.2 0.00 4.95 0.05 90 1017.4
20260502052503 12 331 1.6 3.2 0.00 4.95 0.05 90 1017.3
20260502052003 12 343 1.6 3.2 0.00 4.95 0.05 90 1017.5
20260502051503 12 356 1.6 3.2 0.00 4.95 0.05 90 1017.5
20260502051217 12 350 1.6 3.2 0.00 4.95 0.05 90 1017.5
20260502050503 12 330 0.0 3.2 0.00 4.95 0.05 90 1017.3
20260502050003 12 344 1.6 3.2 0.00 4.95 0.05 89 1017.2
20260502045503 12 340 1.6 3.2 0.00 4.95 0.05 89 1017.3
20260502045003 12 309 3.2 3.2 0.00 4.95 0.05 89 1017.3
20260502044718 12 303 3.2 3.2 0.00 4.95 0.05 88 1017.4
20260502044003 12 343 1.6 4.8 0.00 4.95 0.05 88 1017.6
20260502043503 12 349 1.6 3.2 0.00 4.95 0.05 88 1017.4
20260502043003 12 359 1.6 6.4 0.00 4.95 0.05 87 1017.4
20260502042503 12 14 3.2 6.4 0.00 4.95 0.05 87 1017.5
20260502042003 12 14 4.8 6.4 0.00 4.95 0.05 87 1017.3
20260502041503 12 16 4.8 6.4 0.00 4.95 0.05 86 1017.3
20260502041003 12 9 3.2 6.4 0.00 4.95 0.05 86 1017.3
20260502040503 12 29 3.2 6.4 0.00 4.95 0.05 86 1017.4
20260502040003 12 52 3.2 6.4 0.00 4.95 0.05 86 1017.3
20260502035503 12 11 3.2 6.4 0.00 4.95 0.05 86 1017.4
20260502035003 12 350 1.6 6.4 0.00 4.95 0.05 85 1017.5
20260502034503 12 2 3.2 6.4 0.00 4.95 0.05 85 1017.4
20260502034003 12 4 3.2 6.4 0.00 4.95 0.05 85 1017.4
20260502033503 12 1 3.2 8.0 0.00 4.95 0.05 84 1017.4
20260502033003 12 349 3.2 8.0 0.00 4.95 0.05 84 1017.2
20260502032503 12 4 3.2 8.0 0.00 4.95 0.05 84 1017.3
20260502032003 12 28 3.2 11.3 0.00 4.95 0.05 84 1017.4
20260502031503 12 51 3.2 11.3 0.00 4.95 0.05 84 1017.2
20260502031003 12 19 3.2 11.3 0.00 4.95 0.05 85 1017.1
20260502030503 12 360 3.2 9.7 0.00 4.95 0.05 85 1017.0
20260502030003 12 19 3.2 6.4 0.00 4.95 0.05 86 1016.9
20260502025503 12 16 3.2 8.0 0.00 4.95 0.05 86 1016.8
20260502025003 12 1 3.2 9.7 0.00 4.95 0.05 86 1016.7
20260502024718 12 11 4.8 9.7 0.00 4.95 0.05 86 1016.7
20260502024003 12 14 4.8 12.9 0.00 4.95 0.05 85 1016.5
20260502023503 12 69 4.8 12.9 0.00 4.95 0.05 87 1016.3
20260502023003 12 53 3.2 11.3 0.00 4.98 0.05 87 1016.2
20260502022503 12 7 4.8 14.5 0.00 4.98 0.05 87 1016.1
20260502022003 12 15 4.8 14.5 0.00 4.98 0.05 88 1016.1
20260502021503 12 19 3.2 14.5 0.00 4.98 0.05 88 1016.1
20260502021003 12 1 3.2 9.7 0.00 4.98 0.05 88 1016.1
20260502020503 12 20 4.8 9.7 0.00 4.98 0.05 88 1016.1
20260502020003 12 45 6.4 11.3 0.00 4.98 0.05 88 1016.0
20260502015503 12 23 6.4 11.3 0.00 4.98 0.05 88 1016.0
20260502015003 12 13 4.8 9.7 0.00 4.98 0.05 90 1015.6
20260502014503 12 32 3.2 9.7 0.00 4.98 0.05 90 1015.9
20260502014003 12 11 3.2 12.9 0.00 4.98 0.05 89 1015.3
20260502013717 12 2 3.2 12.9 0.00 4.98 0.05 90 1015.2
20260502013003 12 50 3.2 11.3 0.00 4.98 0.05 91 1015.2
20260502012503 12 17 3.2 12.9 0.00 4.98 0.05 91 1015.0
20260502012218 12 20 3.2 12.9 0.00 4.98 0.05 91 1015.2
20260502011503 12 46 4.8 11.3 0.00 4.98 0.05 92 1015.1
20260502011003 12 39 4.8 11.3 0.00 4.98 0.05 92 1015.0
20260502010717 12 42 6.4 17.7 0.00 4.98 0.05 93 1014.7
20260502010003 12 14 4.8 17.7 0.03 4.98 0.05 92 1014.6
20260502005717 12 21 4.8 17.7 0.05 4.98 0.05 93 1014.5
20260502005003 12 3 4.8 12.9 0.05 4.98 0.05 93 1014.7
20260502004717 12 345 4.8 12.9 0.05 4.98 0.05 93 1014.6
20260502004003 12 359 4.8 12.9 0.05 4.98 0.05 93 1014.4
20260502003503 12 47 6.4 14.5 0.05 4.98 0.05 93 1014.2
20260502003003 12 36 6.4 14.5 0.05 4.98 0.05 94 1014.3
20260502002504 12 358 8.0 20.9 0.05 4.98 0.05 94 1014.1
20260502002003 12 352 6.4 20.9 0.05 4.98 0.05 95 1013.9
20260502001503 12 346 4.8 16.1 0.05 4.98 0.05 95 1013.8
20260502001003 12 357 3.2 11.3 0.05 4.98 0.05 95 1013.7
20260502000503 12 66 3.2 11.3 0.03 4.95 0.03 95 1013.8
20260502000003 12 77 4.8 14.5 0.03 4.95 0.03 95 1013.2
20260501235503 12 49 4.8 14.5 0.00 4.93 0.00 94 1013.2
20260501235003 12 15 6.4 16.1 0.00 4.93 0.00 94 1013.4
20260501234503 12 4 6.4 16.1 0.00 4.93 0.00 94 1013.6
20260501234217 12 10 4.8 16.1 0.03 4.93 0.00 94 1013.9
20260501233503 13 13 3.2 9.7 0.03 4.93 0.00 94 1014.1
20260501233003 13 356 4.8 14.5 0.03 4.93 0.00 94 1013.9
20260501232503 13 347 6.4 14.5 0.05 4.93 0.00 94 1013.8
20260501232003 13 6 4.8 11.3 0.08 4.93 0.00 95 1013.5
20260501231503 13 5 4.8 14.5 0.10 4.93 0.00 95 1013.4
20260501231003 13 353 6.4 14.5 0.10 4.93 0.00 94 1013.5
20260501230503 13 344 6.4 14.5 0.10 4.93 0.00 95 1013.2
20260501230003 13 337 6.4 14.5 0.13 4.93 0.00 95 1013.0
20260501225503 13 353 4.8 12.9 0.13 4.93 4.93 95 1013.2
20260501225003 13 351 4.8 12.9 0.18 4.93 4.93 95 1013.2
20260501224718 13 349 4.8 12.9 0.20 4.93 4.93 95 1013.1
20260501224003 13 339 4.8 9.7 0.25 4.90 4.90 95 1013.1
20260501223503 13 354 4.8 16.1 0.30 4.90 4.90 95 1013.2
20260501223003 13 352 4.8 16.1 0.33 4.90 4.90 95 1013.0
20260501222503 13 359 4.8 22.5 0.33 4.88 4.88 95 1012.7
20260501222217 13 359 4.8 22.5 0.33 4.88 4.88 95 1012.8
20260501221503 13 355 6.4 14.5 0.30 4.83 4.83 95 1012.4
20260501221217 13 349 6.4 14.5 0.30 4.83 4.83 95 1012.8
20260501220503 13 339 4.8 12.9 0.30 4.83 4.83 95 1013.0
20260501220003 13 343 4.8 11.3 0.28 4.80 4.80 95 1013.5
20260501215717 13 337 4.8 11.3 0.28 4.80 4.80 95 1013.3
20260501215216 13 354 3.2 11.3 0.25 4.78 4.78 95 1013.2
20260501214503 13 359 4.8 9.7 0.18 4.70 4.70 95 1012.7
20260501214003 13 321 4.8 9.7 0.13 4.65 4.65 95 1012.3
20260501213503 13 343 4.8 9.7 0.08 4.60 4.60 95 1012.3
20260501213216 13 356 4.8 9.7 0.05 4.57 4.57 94 1012.2
20260501212503 14 359 4.8 9.7 0.03 4.55 4.55 94 1012.2
20260501212003 14 348 6.4 14.5 0.03 4.55 4.55 93 1012.4
20260501211503 14 9 6.4 14.5 0.00 4.52 4.52 93 1012.0
20260501211003 14 26 4.8 14.5 0.03 4.52 4.52 93 1011.8
20260501210503 14 1 4.8 14.5 0.05 4.52 4.52 94 1011.5
20260501210003 14 348 4.8 14.5 0.05 4.52 4.52 94 1011.3
20260501205503 14 328 4.8 14.5 0.05 4.52 4.52 94 1011.7
20260501205003 14 323 4.8 14.5 0.05 4.52 4.52 94 1011.7
20260501204503 14 351 4.8 17.7 0.08 4.52 4.52 94 1010.9
20260501204218 14 347 4.8 17.7 0.08 4.52 4.52 94 1010.7
20260501203503 14 345 4.8 12.9 0.13 4.52 4.52 94 1011.2
20260501203003 14 21 4.8 9.7 0.15 4.52 4.52 95 1011.3
20260501202503 14 10 4.8 11.3 0.23 4.52 4.52 95 1011.1
20260501202003 15 12 4.8 16.1 0.30 4.52 4.52 95 1010.5
20260501201503 13 356 6.4 16.1 0.30 4.52 4.52 95 1010.5
20260501201003 14 7 6.4 14.5 0.28 4.50 4.50 95 1010.3
20260501200503 14 39 4.8 14.5 0.25 4.47 4.47 95 1010.4
20260501200003 14 40 4.8 11.3 0.25 4.47 4.47 95 1010.7
20260501195503 14 33 4.8 11.3 0.25 4.47 4.47 95 1011.0
20260501195003 14 14 3.2 8.0 0.25 4.47 4.47 96 1011.2
20260501194503 14 346 3.2 9.7 0.23 4.45 4.45 96 1011.3
20260501194218 14 351 3.2 9.7 0.25 4.45 4.45 95 1011.6
20260501193717 14 16 3.2 9.7 0.20 4.39 4.39 95 1011.6
20260501193003 14 10 4.8 12.9 0.20 4.37 4.37 95 1012.1
20260501192503 14 331 4.8 20.9 0.15 4.29 4.29 95 1012.5
20260501192003 14 300 6.4 20.9 0.15 4.22 4.22 94 1012.7
20260501191503 15 277 4.8 20.9 0.30 4.27 4.22 95 1013.2
20260501191218 14 314 3.2 11.3 0.41 4.37 4.22 95 1012.0
20260501190503 14 358 4.8 14.5 0.58 5.03 4.22 96 1010.7
20260501190003 14 346 6.4 17.7 0.66 5.61 4.22 96 1010.3
20260501185503 14 354 6.4 17.7 0.74 5.97 4.22 96 1010.6
20260501185003 14 1 4.8 14.5 0.79 5.97 4.22 97 1010.6
20260501184504 14 8 4.8 14.5 0.81 5.97 4.22 97 1010.8
20260501184003 14 18 3.2 11.3 0.81 5.94 4.19 97 1011.1
20260501183503 14 14 4.8 11.3 0.84 5.94 4.19 97 1010.9
20260501183003 14 8 4.8 11.3 0.84 5.92 4.17 97 1011.4
20260501182503 14 344 3.2 11.3 0.86 5.89 4.14 97 1012.8
20260501182217 14 322 3.2 11.3 0.86 5.87 4.11 97 1013.1
20260501181503 14 298 3.2 6.4 0.71 5.66 3.91 97 1013.7
20260501181003 14 297 3.2 6.4 0.56 5.51 3.76 97 1013.9
20260501180503 14 337 3.2 6.4 0.43 5.38 3.63 97 1013.8
20260501180217 14 340 3.2 6.4 0.38 5.33 3.61 97 1013.5
20260501175503 14 353 3.2 11.3 0.28 5.23 3.48 96 1012.7
20260501175003 14 357 4.8 12.9 0.23 5.18 3.43 96 1012.2
20260501174718 14 358 6.4 12.9 0.20 5.16 3.40 96 1011.5
20260501174217 14 349 4.8 20.9 0.18 5.13 3.38 96 1011.7
20260501173503 14 7 3.2 20.9 0.15 5.11 3.35 96 1011.9
20260501173217 14 4 3.2 11.3 0.13 5.08 3.33 95 1011.8
20260501172503 15 24 3.2 11.3 0.08 5.03 3.28 95 1012.3
20260501172217 14 10 3.2 11.3 0.05 5.00 3.25 95 1012.3
20260501171718 14 6 4.8 11.3 0.00 4.95 3.20 95 1012.3
20260501171003 14 18 4.8 11.3 0.00 4.95 3.20 95 1011.7
20260501170503 15 42 4.8 11.3 0.00 4.95 3.20 95 1011.5
20260501170003 15 46 3.2 12.9 0.00 4.95 3.20 95 1011.6
20260501165503 15 32 3.2 12.9 0.03 4.95 3.20 96 1011.3
20260501165003 15 49 3.2 12.9 0.08 4.95 3.20 96 1011.3
20260501164718 14 46 3.2 12.9 0.08 4.95 3.20 96 1011.2
20260501164003 15 28 3.2 12.9 0.10 4.95 3.20 96 1011.6
20260501163503 15 7 4.8 11.3 0.13 4.95 3.20 97 1011.6
20260501163003 15 6 4.8 11.3 0.15 4.95 3.20 97 1011.8
20260501162503 15 5 4.8 12.9 0.15 4.95 3.20 97 1011.4
20260501162003 14 4 6.4 12.9 0.15 4.95 3.20 97 1011.5
20260501161503 14 23 4.8 12.9 0.15 4.95 3.20 98 1011.3
20260501161003 14 34 4.8 16.1 0.15 4.95 3.20 98 1011.2
20260501160503 14 38 4.8 19.3 0.15 4.95 3.20 97 1011.0
20260501160003 14 53 4.8 19.3 0.15 4.95 3.20 97 1010.9
20260501155717 14 65 4.8 19.3 0.15 4.95 3.20 97 1010.5
20260501154503 14 59 3.2 8.0 0.08 4.88 3.12 97 1011.9
20260501154003 14 21 3.2 8.0 0.08 4.85 3.10 97 1012.3
20260501153503 15 2 4.8 9.7 0.08 4.83 3.07 97 1012.7
20260501153003 14 2 4.8 9.7 0.05 4.80 3.05 97 1012.8
20260501152503 15 4 4.8 8.0 0.10 4.80 3.05 97 1013.0
20260501152003 15 358 3.2 9.7 0.18 4.80 3.05 97 1012.9
20260501151503 15 34 3.2 16.1 0.23 4.80 3.05 97 1012.9
20260501151003 14 32 3.2 16.1 0.28 4.80 3.05 97 1012.6
20260501150503 14 348 3.2 16.1 0.33 4.80 3.05 97 1012.8
20260501150003 14 76 3.2 12.9 0.36 4.80 3.05 97 1012.9
20260501145503 15 79 1.6 8.0 0.38 4.80 3.05 98 1013.1
20260501145218 14 72 3.2 8.0 0.41 4.80 3.05 98 1012.8
20260501144503 14 19 4.8 16.1 0.43 4.80 3.05 98 1012.4
20260501144003 14 53 4.8 16.1 0.43 4.78 3.02 97 1012.4
20260501143503 15 88 3.2 14.5 0.43 4.75 3.00 98 1012.9
20260501143003 14 76 6.4 19.3 0.48 4.75 3.00 97 1012.6
20260501142503 14 77 4.8 19.3 0.43 4.70 2.95 97 1009.8
20260501142003 15 63 3.2 11.3 0.36 4.62 2.87 97 1011.4
20260501141503 15 36 3.2 6.4 0.33 4.57 2.82 97 1013.1
20260501141003 15 18 1.6 4.8 0.28 4.52 2.77 97 1013.8
20260501140503 15 3 1.6 4.8 0.23 4.47 2.72 97 1014.8
20260501140003 15 1 1.6 4.8 0.20 4.45 2.69 97 1015.1
20260501135003 15 1 3.2 6.4 0.15 4.39 2.64 98 1014.8
20260501134503 15 17 1.6 6.4 0.13 4.37 2.62 98 1014.4
20260501134003 15 337 1.6 12.9 0.15 4.34 2.59 98 1014.1
20260501133503 15 314 1.6 12.9 0.20 4.34 2.57 98 1014.1